Hourly Weather Klecz

Today, 27 July, Tuesday

Time Temperature Precipitation Wind Pressure Humidity
00:00 +21°C° 0.2 mm 2 mps 744 mmHg 79%
01:00 +20°C° 0 mm 2 mps 744 mmHg 80%
02:00 +20°C° 0.5 mm 2 mps 744 mmHg 83%
03:00 +19°C° 0.5 mm 2 mps 744 mmHg 86%
04:00 +19°C° 0.5 mm 2 mps 744 mmHg 89%
05:00 +20°C° 0.1 mm 2 mps 744 mmHg 85%
06:00 +21°C° 0.1 mm 2 mps 744 mmHg 80%
07:00 +23°C° 0.1 mm 2 mps 745 mmHg 76%
08:00 +25°C° 0 mm 2 mps 745 mmHg 70%
09:00 +26°C° 0 mm 3 mps 745 mmHg 64%
10:00 +28°C° 0 mm 3 mps 745 mmHg 58%
11:00 +29°C° 0 mm 3 mps 745 mmHg 54%
12:00 +30°C° 0 mm 4 mps 745 mmHg 50%
13:00 +30°C° 0 mm 4 mps 745 mmHg 46%
14:00 +30°C° 0 mm 4 mps 745 mmHg 45%
15:00 +30°C° 0 mm 4 mps 745 mmHg 44%
16:00 +30°C° 0 mm 4 mps 745 mmHg 44%
17:00 +29°C° 0 mm 3 mps 745 mmHg 48%
18:00 +28°C° 0 mm 3 mps 745 mmHg 53%
19:00 +27°C° 0 mm 2 mps 745 mmHg 58%
20:00 +26°C° 0 mm 2 mps 745 mmHg 59%
21:00 +25°C° 0 mm 1 mps 745 mmHg 60%
22:00 +24°C° 0 mm 1 mps 745 mmHg 61%
23:00 +23°C° 0 mm 1 mps 745 mmHg 62%

Tomorrow, 28 July, Wednesday

Time Temperature Precipitation Wind Pressure Humidity
00:00 +23°C° 0 mm 1 mps 745 mmHg 63%
01:00 +23°C° 0 mm 1 mps 745 mmHg 64%
02:00 +22°C° 0 mm 1 mps 745 mmHg 67%
03:00 +22°C° 0 mm 1 mps 745 mmHg 69%
04:00 +21°C° 0 mm 1 mps 744 mmHg 71%
05:00 +22°C° 0.1 mm 1 mps 744 mmHg 69%
06:00 +24°C° 0.1 mm 1 mps 744 mmHg 67%
07:00 +25°C° 0.1 mm 1 mps 745 mmHg 64%
08:00 +25°C° 0.2 mm 1 mps 745 mmHg 65%
09:00 +25°C° 0.2 mm 2 mps 744 mmHg 66%
10:00 +25°C° 0.2 mm 2 mps 744 mmHg 67%
11:00 +24°C° 1.3 mm 3 mps 745 mmHg 73%
12:00 +22°C° 1.3 mm 3 mps 745 mmHg 79%
13:00 +21°C° 1.3 mm 4 mps 745 mmHg 85%
14:00 +22°C° 0.2 mm 3 mps 745 mmHg 79%
15:00 +24°C° 0.2 mm 2 mps 745 mmHg 74%
16:00 +25°C° 0.2 mm 1 mps 745 mmHg 68%
17:00 +24°C° 0.5 mm 2 mps 745 mmHg 74%
18:00 +23°C° 0.5 mm 2 mps 745 mmHg 80%
19:00 +21°C° 0.5 mm 2 mps 745 mmHg 86%
20:00 +21°C° 0.1 mm 2 mps 745 mmHg 88%
21:00 +20°C° 0.1 mm 2 mps 745 mmHg 90%
22:00 +19°C° 0.1 mm 2 mps 745 mmHg 92%
23:00 +19°C° 0 mm 2 mps 745 mmHg 92%

Day after tomorrow, 29 July, Thursday

Time Temperature Precipitation Wind Pressure Humidity
00:00 +18°C° 0 mm 3 mps 745 mmHg 92%
01:00 +18°C° 0 mm 3 mps 745 mmHg 92%
02:00 +18°C° 0 mm 3 mps 745 mmHg 92%
03:00 +17°C° 0 mm 2 mps 745 mmHg 91%
04:00 +17°C° 0 mm 2 mps 745 mmHg 91%
05:00 +18°C° 0 mm 3 mps 745 mmHg 86%
06:00 +19°C° 0 mm 3 mps 745 mmHg 80%
07:00 +21°C° 0 mm 3 mps 745 mmHg 75%
08:00 +22°C° 0 mm 3 mps 746 mmHg 68%
09:00 +25°C° 0 mm 3 mps 746 mmHg 61%
10:00 +26°C° 0 mm 3 mps 746 mmHg 54%
11:00 +27°C° 0 mm 4 mps 745 mmHg 50%
12:00 +28°C° 0 mm 4 mps 745 mmHg 46%
13:00 +29°C° 0 mm 5 mps 745 mmHg 41%
14:00 +29°C° 0 mm 5 mps 745 mmHg 41%
15:00 +29°C° 0 mm 5 mps 744 mmHg 40%
16:00 +30°C° 0 mm 5 mps 744 mmHg 40%
17:00 +28°C° 0 mm 4 mps 744 mmHg 45%
18:00 +27°C° 0 mm 3 mps 744 mmHg 49%
19:00 +26°C° 0 mm 1 mps 744 mmHg 54%
20:00 +25°C° 0 mm 2 mps 744 mmHg 56%
21:00 +24°C° 0 mm 2 mps 744 mmHg 58%
22:00 +23°C° 0 mm 2 mps 744 mmHg 60%
23:00 +21°C° 0.1 mm 2 mps 743 mmHg 66%

30 July, Friday

Time Temperature Precipitation Wind Pressure Humidity
00:00 +21°C° 0.1 mm 2 mps 743 mmHg 73%
01:00 +20°C° 0.1 mm 2 mps 743 mmHg 80%
02:00 +20°C° 0 mm 2 mps 743 mmHg 82%
03:00 +19°C° 0 mm 3 mps 743 mmHg 84%
04:00 +19°C° 0 mm 3 mps 743 mmHg 86%
05:00 +20°C° 0.3 mm 3 mps 743 mmHg 85%
06:00 +20°C° 0.3 mm 3 mps 743 mmHg 83%
07:00 +21°C° 0.3 mm 3 mps 743 mmHg 82%
08:00 +21°C° 0.1 mm 3 mps 743 mmHg 78%
09:00 +22°C° 0.1 mm 3 mps 743 mmHg 74%
10:00 +22°C° 0.1 mm 3 mps 743 mmHg 69%
11:00 +24°C° 0 mm 3 mps 743 mmHg 63%
12:00 +25°C° 0 mm 4 mps 743 mmHg 57%
13:00 +26°C° 0 mm 4 mps 742 mmHg 50%
14:00 +27°C° 0 mm 4 mps 742 mmHg 48%
15:00 +27°C° 0 mm 4 mps 742 mmHg 47%
16:00 +28°C° 0 mm 4 mps 741 mmHg 45%
17:00 +26°C° 0 mm 3 mps 741 mmHg 49%
18:00 +25°C° 0 mm 3 mps 741 mmHg 53%
19:00 +24°C° 0 mm 2 mps 741 mmHg 57%
20:00 +23°C° 0 mm 2 mps 741 mmHg 57%
21:00 +21°C° 0 mm 2 mps 742 mmHg 58%
22:00 +20°C° 0 mm 2 mps 742 mmHg 58%
23:00 +19°C° 0 mm 2 mps 742 mmHg 59%

31 July, Saturday

Time Temperature Precipitation Wind Pressure Humidity
00:00 +20°C° 0 mm 1 mps 742 mmHg 61%
01:00 +19°C° 0 mm 1 mps 742 mmHg 62%
02:00 +18°C° 0 mm 2 mps 742 mmHg 61%
03:00 +18°C° 0 mm 2 mps 742 mmHg 61%
04:00 +19°C° 0 mm 3 mps 742 mmHg 61%
05:00 +19°C° 0 mm 3 mps 742 mmHg 61%
06:00 +19°C° 0 mm 4 mps 742 mmHg 61%
07:00 +20°C° 0 mm 4 mps 743 mmHg 61%
08:00 +21°C° 0 mm 4 mps 743 mmHg 58%
09:00 +22°C° 0 mm 4 mps 743 mmHg 54%
10:00 +23°C° 0 mm 4 mps 743 mmHg 50%
11:00 +23°C° 0 mm 4 mps 743 mmHg 48%
12:00 +25°C° 0 mm 4 mps 742 mmHg 47%
13:00 +25°C° 0 mm 4 mps 742 mmHg 45%
14:00 +26°C° 0 mm 4 mps 742 mmHg 45%
15:00 +26°C° 0 mm 4 mps 742 mmHg 44%
16:00 +26°C° 0 mm 3 mps 742 mmHg 43%
17:00 +26°C° 0 mm 3 mps 741 mmHg 47%
18:00 +25°C° 0 mm 2 mps 741 mmHg 52%
19:00 +24°C° 0 mm 2 mps 741 mmHg 56%
20:00 +23°C° 0 mm 2 mps 742 mmHg 56%
21:00 +23°C° 0 mm 2 mps 742 mmHg 56%
22:00 +21°C° 0 mm 2 mps 742 mmHg 56%
23:00 +21°C° 0 mm 2 mps 742 mmHg 58%

1 August, Sunday

Time Temperature Precipitation Wind Pressure Humidity
00:00 +20°C° 0 mm 2 mps 742 mmHg 60%
01:00 +19°C° 0 mm 2 mps 742 mmHg 62%
02:00 +18°C° 0 mm 2 mps 742 mmHg 64%
03:00 +18°C° 0 mm 2 mps 742 mmHg 66%
04:00 +17°C° 0 mm 2 mps 742 mmHg 68%
05:00 +18°C° 0 mm 2 mps 742 mmHg 66%
06:00 +19°C° 0 mm 2 mps 742 mmHg 64%
07:00 +20°C° 0 mm 2 mps 742 mmHg 63%
08:00 +21°C° 0 mm 2 mps 742 mmHg 60%
09:00 +23°C° 0 mm 2 mps 743 mmHg 57%
10:00 +24°C° 0 mm 2 mps 743 mmHg 54%
11:00 +25°C° 0 mm 2 mps 742 mmHg 51%
12:00 +25°C° 0 mm 2 mps 742 mmHg 49%
13:00 +26°C° 0 mm 2 mps 742 mmHg 47%
14:00 +25°C° 0 mm 2 mps 742 mmHg 50%
15:00 +25°C° 0 mm 2 mps 742 mmHg 53%
16:00 +24°C° 0 mm 2 mps 742 mmHg 56%
17:00 +23°C° 0.3 mm 2 mps 742 mmHg 62%
18:00 +21°C° 0.3 mm 2 mps 742 mmHg 67%
19:00 +21°C° 0.3 mm 1 mps 741 mmHg 72%
20:00 +21°C° 0.1 mm 1 mps 742 mmHg 75%
21:00 +20°C° 0.1 mm 1 mps 742 mmHg 77%
22:00 +19°C° 0.1 mm 1 mps 742 mmHg 79%
23:00 +19°C° 0 mm 1 mps 742 mmHg 78%
Show more